WN8IZV Weather Reports


Display with metric or nautical units.
time (UTC)temp
F
wind
direction
speed
MPH
gust
MPH
rain 1hr
in
rain 24hr
in
rain mn
in
humidity
%
barometer
mb
20240522211527 88 201 1.0 6.0 0.00 0.00 0.00 78 1004.0
20240522210010 88 203 1.0 10.0 0.00 0.00 0.00 78 1004.0
20240522204508 88 215 2.0 10.0 0.00 0.00 0.00 78 1004.3
20240522203008 88 243 4.0 12.0 0.00 0.00 0.00 78 1004.3
20240522201513 89 181 5.0 12.0 0.00 0.00 0.00 78 1004.3
20240522200101 89 184 2.0 10.0 0.00 0.00 0.00 78 1004.3
20240522194559 89 204 4.0 9.0 0.00 0.00 0.00 78 1004.1
20240522193054 89 231 1.0 6.0 0.00 0.00 0.00 78 1004.1
20240522191555 88 181 3.0 8.0 0.00 0.00 0.00 78 1004.2
20240522190045 87 330 3.0 10.0 0.00 0.00 0.00 78 1004.2
20240522184600 87 112 3.0 8.0 0.00 0.00 0.00 78 1004.2
20240522183052 87 171 4.0 10.0 0.00 0.00 0.00 78 1004.3
20240522181538 87 191 3.0 11.0 0.00 0.00 0.00 78 1004.3
20240522180035 87 210 3.0 11.0 0.00 0.00 0.00 79 1004.3
20240522174534 87 188 5.0 8.0 0.00 0.00 0.00 79 1004.7
20240522173030 86 133 4.0 11.0 0.00 0.00 0.00 79 1005.0
20240522171526 86 244 2.0 11.0 0.00 0.00 0.00 79 1005.0
20240522170022 85 189 2.0 9.0 0.00 0.00 0.00 78 1005.0
20240522164531 85 137 3.0 12.0 0.00 0.00 0.00 78 1004.9
20240522163015 84 198 6.0 12.0 0.00 0.00 0.00 78 1005.0
20240522161513 83 197 5.0 12.0 0.00 0.00 0.00 78 1005.0
20240522160012 83 73 1.0 10.0 0.00 0.00 0.00 78 1005.1
20240522154509 84 203 2.0 12.0 0.00 0.00 0.00 78 1005.2
20240522153005 83 281 3.0 10.0 0.00 0.00 0.00 78 1005.2
20240522151501 82 190 1.0 7.0 0.00 0.00 0.00 78 1005.1
20240522150105 81 157 4.0 8.0 0.00 0.00 0.00 78 1005.0
20240522144553 80 200 4.0 10.0 0.00 0.00 0.00 78 1005.2
20240522143046 78 274 4.0 9.0 0.00 0.00 0.00 77 1005.6
20240522141542 78 241 3.0 9.0 0.00 0.00 0.00 77 1005.6
20240522140037 76 202 4.0 7.0 0.00 0.00 0.00 77 1005.7
20240522134538 74 153 1.0 7.0 0.00 0.00 0.00 77 1005.8
20240522133130 74 218 2.0 5.0 0.00 0.00 0.00 77 1005.7
20240522131528 76 218 2.0 5.0 0.00 0.00 0.00 77 1005.8
20240522130025 75 175 2.0 7.0 0.00 0.00 0.00 77 1005.7
20240522124623 75 199 3.0 7.0 0.00 0.00 0.00 77 1005.4
20240522123020 75 189 2.0 6.0 0.00 0.00 0.00 77 1005.2
20240522121517 75 125 2.0 5.0 0.00 0.00 0.00 77 1005.4
20240522120016 75 205 2.0 6.0 0.00 0.00 0.00 77 1005.2
20240522114615 75 210 2.0 6.0 0.00 0.00 0.00 77 1005.3
20240522113109 74 162 2.0 6.0 0.00 0.00 0.00 77 1005.4
20240522111507 73 201 2.0 6.0 0.00 0.00 0.00 76 1005.5
20240522110004 72 167 2.0 4.0 0.00 0.00 0.00 76 1005.4
20240522104502 72 207 2.0 5.0 0.00 0.00 0.00 76 1005.4
20240522103105 71 176 1.0 6.0 0.00 0.00 0.00 76 1005.5
20240522101558 71 174 2.0 5.0 0.00 0.00 0.00 76 1005.4
20240522100056 71 155 1.0 4.0 0.00 0.00 0.00 76 1005.5
20240522094553 71 154 0.0 4.0 0.00 0.00 0.00 76 1005.6
20240522093103 71 132 0.0 3.0 0.00 0.00 0.00 76 1005.6
20240522091552 72 150 0.0 3.0 0.00 0.00 0.00 76 1005.9
20240522090045 72 150 1.0 3.0 0.00 0.00 0.00 76 1005.5
20240522084543 72 159 0.0 2.0 0.00 0.00 0.00 76 1005.6
20240522083039 72 159 0.0 3.0 0.00 0.00 0.00 76 1005.6
20240522081536 72 150 1.0 4.0 0.00 0.00 0.00 76 1005.6
20240522080036 73 167 0.0 4.0 0.00 0.00 0.00 76 1005.5
20240522074539 73 219 1.0 3.0 0.00 0.00 0.00 77 1005.6
20240522073038 74 165 1.0 4.0 0.00 0.00 0.00 77 1005.7
20240522071532 74 188 1.0 4.0 0.00 0.00 0.00 77 1005.7
20240522070023 75 175 2.0 6.0 0.00 0.00 0.00 77 1006.0
20240522064517 75 159 2.0 5.0 0.00 0.00 0.00 77 1006.3
20240522063014 75 211 2.0 4.0 0.00 0.00 0.00 77 1006.6
20240522061511 76 247 2.0 7.0 0.00 0.00 0.00 77 1006.8
20240522060006 76 192 1.0 6.0 0.00 0.00 0.00 77 1006.9
20240522054504 76 129 2.0 5.0 0.00 0.00 0.00 77 1007.0
20240522053059 76 201 2.0 4.0 0.00 0.00 0.00 77 1007.1
20240522051608 76 193 3.0 6.0 0.00 0.00 0.00 77 1007.3
20240522050054 74 274 1.0 4.0 0.00 0.00 0.00 77 1007.4
20240522044545 73 192 1.0 5.0 0.00 0.00 0.00 77 1007.3
20240522043039 72 189 0.0 0.0 0.00 0.00 0.00 76 1007.1
20240522041533 72 136 0.0 1.0 0.00 0.00 0.00 77 1006.8
20240522040039 72 162 0.0 0.0 0.00 0.00 0.00 77 1006.4
20240522034525 72 148 0.0 0.0 0.00 0.00 0.00 77 1006.4
20240522033024 73 140 0.0 3.0 0.00 0.00 0.00 77 1006.5
20240522031526 74 163 0.0 3.0 0.00 0.00 0.00 77 1006.7
20240522030019 74 149 1.0 3.0 0.00 0.00 0.00 77 1006.3
20240522024536 75 167 0.0 3.0 0.00 0.00 0.00 77 1006.6
20240522023015 75 142 1.0 4.0 0.00 0.00 0.00 77 1006.8
20240522021515 76 166 1.0 6.0 0.00 0.00 0.00 77 1006.9
20240522020016 76 162 0.0 3.0 0.00 0.00 0.00 77 1006.8
20240522014512 77 174 1.0 4.0 0.00 0.02 0.00 78 1006.6
20240522013014 77 155 0.0 2.0 0.00 0.02 0.00 78 1006.6
20240522011503 78 155 0.0 2.0 0.00 0.02 0.00 78 1006.6
20240522010102 78 159 1.0 3.0 0.00 0.02 0.00 78 1006.7
20240522004601 79 171 0.0 2.0 0.00 0.06 0.00 78 1006.7
20240522003057 79 139 0.0 2.0 0.00 0.06 0.00 78 1006.9
20240522001553 81 73 0.0 0.0 0.00 0.06 0.00 78 1007.1
20240522000052 83 73 0.0 0.0 0.00 0.06 0.00 79 1007.3
20240521234553 85 73 0.0 1.0 0.00 0.06 0.00 79 1007.3
20240521233055 85 73 0.0 1.0 0.00 0.06 0.00 79 1007.5
20240521231548 84 138 0.0 0.0 0.00 0.06 0.00 79 1007.4
20240521230046 86 136 0.0 2.0 0.00 0.06 0.00 79 1007.7
20240521224536 85 150 0.0 2.0 0.00 0.06 0.00 79 1008.2
20240521223133 84 70 1.0 3.0 0.00 0.06 0.00 79 1008.3
20240521221531 82 72 0.0 1.0 0.00 0.06 0.00 79 1008.5
20240521220030 82 79 0.0 1.0 0.00 0.06 0.00 79 1008.5
20240521214525 82 76 0.0 1.0 0.00 0.06 0.00 79 1008.6
20240521213024 83 153 0.0 2.0 0.00 0.06 0.00 79 1008.6